Melbourne Airport, Australia

6:56 PM AEST on June 26, 2017 (GMT +1000)
Melbourne International

Weather History for YMML - July, 2013

Change the Weather History Date:

Friday, July 26, 2013

  Actual Average Record
Temperature  
Mean Temperature 52 °F -  
Max Temperature 59 °F 55 °F 62 °F (1997)
Min Temperature 45 °F 41 °F 35 °F (1999)
Degree Days  
Heating Degree Days 13    
Growing Degree Days 2 (Base 50)    
Moisture  
Dew Point 43 °F    
Average Humidity 75    
Maximum Humidity 93    
Minimum Humidity 48    
Precipitation  
Precipitation 0.00 in 0.07 in - ()
Sea Level Pressure  
Sea Level Pressure 30.26 in    
Wind  
Wind Speed 18 mph ()    
Max Wind Speed 23 mph    
Max Gust Speed 33 mph    
Visibility 8.4 miles    
Events Rain    
Averages and records for this station are not official NWS values.
T = Trace of Precipitation, MM = Missing Value Source: Averaged Metar Reports

Daily Weather History Graph

Daily Weather History Graph

Search for Another Location

Airport or City:

Trip Planner

Search our weather history database for the weather conditions in past years. The results will help you decide how hot, cold, wet, or windy it might be!

Date:

Astronomy

Jul. 26, 2013 Rise Set
Actual Time 7:25 AM AEST 5:28 PM AEST
Civil Twilight 6:57 AM AEST 5:57 PM AEST
Nautical Twilight 6:25 AM AEST 6:28 PM AEST
Astronomical Twilight 5:54 AM AEST 6:59 PM AEST
Moon 9:41 PM AEST 9:14 AM AEST
Length of Visible Light 10h 59m
Length of Day
10h 02m
Waning Gibbous, 85% of the Moon is Illuminated
Jul 26
Waning Gibbous
Jul 30
Last Quarter
Aug 7
New
Aug 14
First Quarter
Aug 21
Full

Hourly Weather History & Observations

Time (AEST) Temp. Windchill Dew Point Humidity Pressure Visibility Wind Dir Wind Speed Gust Speed Precip Events Conditions
12:00 AM 47 °F - 42 °F 76% 30.25 in 19 mi North 23.0 mph - -   Partly Cloudy
12:00 AM 46.4 °F 38.3 °F 42.8 °F 87% 30.24 in - North 23.0 mph - N/A   Clear
12:30 AM 46.4 °F 39.0 °F 41.0 °F 81% 30.24 in - North 19.6 mph - N/A   Clear
1:00 AM 46 °F - 42 °F 79% 30.26 in - North 18.4 mph - -  
1:00 AM 46.4 °F 39.2 °F 41.0 °F 81% 30.24 in - North 18.4 mph - N/A   Clear
1:30 AM 46.4 °F 38.7 °F 41.0 °F 81% 30.24 in - North 20.7 mph - N/A   Clear
2:00 AM 46.4 °F 38.7 °F 41.0 °F 81% 30.24 in - North 20.7 mph - N/A   Clear
2:30 AM 46.4 °F 38.7 °F 41.0 °F 81% 30.24 in - North 20.7 mph - N/A   Clear
3:00 AM 46.4 °F 38.5 °F 41.0 °F 81% 30.21 in - North 21.9 mph 33.4 mph N/A   Clear
3:30 AM 48.2 °F - 41.0 °F 76% 30.21 in - North 21.9 mph - N/A   Clear
4:00 AM 48.2 °F - 41.0 °F 76% 30.21 in - North 18.4 mph - N/A   Clear
4:30 AM 48.2 °F - 41.0 °F 76% 30.21 in 6.2 mi North 20.7 mph - N/A   Mostly Cloudy
5:00 AM 48.2 °F - 41.0 °F 76% 30.21 in 6.2 mi North 21.9 mph - N/A   Mostly Cloudy
5:30 AM 48.2 °F - 41.0 °F 76% 30.21 in 6.2 mi North 21.9 mph - N/A   Mostly Cloudy
6:00 AM 47 °F - 42 °F 76% 30.25 in 19 mi North 21.9 mph - -   Partly Cloudy
6:00 AM 48.2 °F - 41.0 °F 76% 30.21 in 6.2 mi North 21.9 mph - N/A   Mostly Cloudy
6:30 AM 48.2 °F - 41.0 °F 76% 30.24 in 6.2 mi North 18.4 mph - N/A   Mostly Cloudy
7:00 AM 47 °F - 42 °F 77% 30.26 in - North 19.6 mph - -  
7:00 AM 48.2 °F - 42.8 °F 82% 30.24 in 6.2 mi North 19.6 mph - N/A   Mostly Cloudy
7:30 AM 48.2 °F - 42.8 °F 82% 30.24 in 6.2 mi North 19.6 mph - N/A Rain Light Rain Showers
7:50 AM 46.4 °F 38.5 °F 44.6 °F 93% 30.24 in 3.7 mi North 21.9 mph - N/A Rain Light Rain Showers
8:00 AM 46.4 °F 38.7 °F 44.6 °F 93% 30.24 in 4.3 mi North 20.7 mph - N/A Rain Light Rain Showers
8:10 AM 46.4 °F 39.0 °F 44.6 °F 93% 30.24 in 6.2 mi North 19.6 mph - N/A   Mostly Cloudy
8:30 AM 46.4 °F 38.5 °F 44.6 °F 93% 30.24 in 6.2 mi North 21.9 mph - N/A   Mostly Cloudy
9:00 AM 47 °F - 44 °F 85% 30.28 in 16 mi North 20.7 mph - -   Mostly Cloudy
9:00 AM 48.2 °F - 44.6 °F 87% 30.27 in 6.2 mi North 20.7 mph - N/A   Mostly Cloudy
9:30 AM 48.2 °F - 44.6 °F 87% 30.27 in 6.2 mi North 19.6 mph - N/A   Mostly Cloudy
10:00 AM 49 °F - 44 °F 79% 30.29 in - North 20.7 mph - -  
10:00 AM 50.0 °F - 44.6 °F 82% 30.27 in 6.2 mi North 20.7 mph - N/A   Mostly Cloudy
10:30 AM 51.8 °F - 44.6 °F 76% 30.27 in 6.2 mi North 21.9 mph - N/A   Mostly Cloudy
11:00 AM 51.8 °F - 44.6 °F 76% 30.27 in 6.2 mi North 18.4 mph - N/A   Mostly Cloudy
11:30 AM 55.4 °F - 44.6 °F 67% 30.27 in 6.2 mi North 15.0 mph - N/A   Mostly Cloudy
12:00 PM 57 °F - 44 °F 53% 30.29 in 19 mi NNW 15.0 mph - -   Partly Cloudy
12:00 PM 57.2 °F - 44.6 °F 63% 30.27 in 6.2 mi NNW 15.0 mph - N/A   Scattered Clouds
12:30 PM 57.2 °F - 44.6 °F 63% 30.24 in 6.2 mi NNW 16.1 mph - N/A   Scattered Clouds
1:00 PM 58 °F - 45 °F 51% 30.27 in - NNW 18.4 mph - -  
1:00 PM 57.2 °F - 44.6 °F 63% 30.24 in 6.2 mi NNW 18.4 mph - N/A   Scattered Clouds
1:30 PM 57.2 °F - 44.6 °F 63% 30.24 in 6.2 mi North 17.3 mph - N/A   Scattered Clouds
2:00 PM 57.2 °F - 46.4 °F 67% 30.24 in 6.2 mi North 17.3 mph - N/A   Scattered Clouds
2:30 PM 57.2 °F - 44.6 °F 63% 30.24 in 6.2 mi North 18.4 mph - N/A   Scattered Clouds
3:00 PM 59 °F - 45 °F 48% 30.27 in 19 mi North 13.8 mph - -   Partly Cloudy
3:00 PM 59.0 °F - 44.6 °F 59% 30.24 in 6.2 mi North 13.8 mph - N/A   Scattered Clouds
3:30 PM 57.2 °F - 44.6 °F 63% 30.24 in 6.2 mi NW 11.5 mph - N/A   Partly Cloudy
4:00 PM 57 °F - 44 °F 50% 30.27 in - North 16.1 mph - -  
4:00 PM 57.2 °F - 42.8 °F 59% 30.24 in 6.2 mi North 16.1 mph - N/A   Partly Cloudy
4:30 PM 55.4 °F - 42.8 °F 63% 30.24 in 6.2 mi North 15.0 mph - N/A   Partly Cloudy
5:00 PM 53.6 °F - 42.8 °F 67% 30.27 in 6.2 mi North 12.7 mph - N/A   Partly Cloudy
5:30 PM 51.8 °F - 44.6 °F 76% 30.27 in 6.2 mi North 10.4 mph - N/A   Scattered Clouds
6:00 PM 51 °F - 44 °F 71% 30.29 in 19 mi North 15.0 mph - -   Partly Cloudy
6:00 PM 51.8 °F - 44.6 °F 76% 30.27 in 6.2 mi North 15.0 mph - N/A   Scattered Clouds
6:30 PM 50.0 °F - 44.6 °F 82% 30.27 in 6.2 mi North 16.1 mph - N/A   Partly Cloudy
7:00 PM 50 °F - 44 °F 75% 30.29 in - North 19.6 mph - -  
7:00 PM 50.0 °F - 44.6 °F 82% 30.27 in - North 19.6 mph - N/A   Clear
7:30 PM 50.0 °F - 44.6 °F 82% 30.27 in - North 17.3 mph - N/A   Clear
8:00 PM 50.0 °F - 44.6 °F 82% 30.27 in - North 18.4 mph - N/A   Clear
8:30 PM 48.2 °F - 44.6 °F 87% 30.27 in - North 17.3 mph - N/A   Clear
9:00 PM 50 °F - 44 °F 73% 30.31 in 19 mi North 17.3 mph - -   Partly Cloudy
9:00 PM 50.0 °F - 44.6 °F 82% 30.27 in - North 17.3 mph - N/A   Clear
9:30 PM 50.0 °F - 44.6 °F 82% 30.30 in - North 18.4 mph - N/A   Clear
9:54 PM 50.0 °F - 42.8 °F 76% 30.27 in - North 19.6 mph 32.2 mph N/A   Clear
10:00 PM 50 °F - 43 °F 69% 30.31 in - North 20.7 mph - -  
10:00 PM 50.0 °F - 42.8 °F 76% 30.30 in - North 20.7 mph 33.4 mph N/A   Clear
10:30 PM 50.0 °F - 42.8 °F 76% 30.30 in - North 19.6 mph - N/A   Clear
11:00 PM 50.0 °F - 42.8 °F 76% 30.30 in - North 18.4 mph - N/A   Clear
11:30 PM 50.0 °F - 42.8 °F 76% 30.30 in - North 15.0 mph - N/A   Clear